When you browse on this site, cookies collect data to enhance your experience and personalize the content and advertising you see.
Visit our Privacy Policy to learn more. By continuing to use the site, you agree to this use of cookies and data.
  • In Schweiz
  • Länderverzeichnis
  • Für 7 Tage
  • Wassertemperatur
  • Satellitenkarten
  • Wetterkarte
  • Widgets
  • user-avatar
    Anmelden

    Stündliche Wetter Ondjiwa

    Heute, 26 März, Dienstag

    Zeit Temperatur Niederschläge Wind Luftdruck Luftfeuchtigkeit
    00:00 +29°C° 0 mm 2 m/S 667 mmHg 31%
    01:00 +29°C° 0 mm 2 m/S 667 mmHg 31%
    02:00 +28°C° 0 mm 2 m/S 667 mmHg 34%
    03:00 +27°C° 0 mm 2 m/S 667 mmHg 37%
    04:00 +27°C° 0 mm 2 m/S 667 mmHg 40%
    05:00 +26°C° 0 mm 2 m/S 667 mmHg 43%
    06:00 +26°C° 0 mm 2 m/S 668 mmHg 46%
    07:00 +26°C° 0 mm 2 m/S 668 mmHg 48%
    08:00 +28°C° 0 mm 3 m/S 669 mmHg 43%
    09:00 +31°C° 0 mm 3 m/S 669 mmHg 37%
    10:00 +34°C° 0 mm 4 m/S 670 mmHg 31%
    11:00 +35°C° 0 mm 3 m/S 669 mmHg 28%
    12:00 +36°C° 0 mm 3 m/S 669 mmHg 26%
    13:00 +36°C° 0 mm 3 m/S 668 mmHg 23%
    14:00 +35°C° 0 mm 2 m/S 668 mmHg 26%
    15:00 +34°C° 0 mm 2 m/S 667 mmHg 28%
    16:00 +32°C° 0 mm 2 m/S 667 mmHg 30%
    17:00 +31°C° 0 mm 1 m/S 667 mmHg 32%
    18:00 +30°C° 0 mm 1 m/S 667 mmHg 34%
    19:00 +29°C° 0 mm 1 m/S 667 mmHg 36%
    20:00 +28°C° 0.2 mm 1 m/S 667 mmHg 40%
    21:00 +27°C° 0.2 mm 1 m/S 668 mmHg 44%
    22:00 +24°C° 0.2 mm 0 m/S 668 mmHg 49%
    23:00 +25°C° 0.3 mm 1 m/S 668 mmHg 55%

    Morgen, 27 März, Mittwoch

    Zeit Temperatur Niederschläge Wind Luftdruck Luftfeuchtigkeit
    00:00 +24°C° 0.3 mm 2 m/S 668 mmHg 62%
    01:00 +23°C° 0.3 mm 2 m/S 668 mmHg 69%
    02:00 +23°C° 0 mm 2 m/S 668 mmHg 69%
    03:00 +23°C° 0 mm 2 m/S 668 mmHg 70%
    04:00 +22°C° 0 mm 3 m/S 667 mmHg 71%
    05:00 +22°C° 0 mm 3 m/S 668 mmHg 69%
    06:00 +22°C° 0 mm 3 m/S 668 mmHg 67%
    07:00 +24°C° 0 mm 3 m/S 669 mmHg 66%
    08:00 +27°C° 0 mm 3 m/S 670 mmHg 55%
    09:00 +30°C° 0 mm 3 m/S 670 mmHg 45%
    10:00 +34°C° 0 mm 3 m/S 671 mmHg 34%
    11:00 +35°C° 0 mm 2 m/S 671 mmHg 31%
    12:00 +36°C° 0 mm 2 m/S 670 mmHg 28%
    13:00 +37°C° 0 mm 2 m/S 669 mmHg 24%
    14:00 +36°C° 0 mm 2 m/S 669 mmHg 26%
    15:00 +34°C° 0 mm 1 m/S 669 mmHg 28%
    16:00 +33°C° 0 mm 1 m/S 668 mmHg 30%
    17:00 +32°C° 0.1 mm 1 m/S 668 mmHg 33%
    18:00 +29°C° 0.1 mm 0 m/S 668 mmHg 36%
    19:00 +27°C° 0.1 mm 0 m/S 668 mmHg 39%
    20:00 +28°C° 0.1 mm 1 m/S 668 mmHg 43%
    21:00 +27°C° 0.1 mm 1 m/S 669 mmHg 47%
    22:00 +26°C° 0.1 mm 2 m/S 669 mmHg 52%
    23:00 +26°C° 0 mm 2 m/S 669 mmHg 53%

    übermorgen, 28 März, Donnerstag

    Zeit Temperatur Niederschläge Wind Luftdruck Luftfeuchtigkeit
    00:00 +26°C° 0 mm 1 m/S 669 mmHg 55%
    01:00 +26°C° 0 mm 1 m/S 669 mmHg 56%
    02:00 +25°C° 0.1 mm 1 m/S 669 mmHg 58%
    03:00 +24°C° 0.1 mm 1 m/S 668 mmHg 61%
    04:00 +24°C° 0.1 mm 1 m/S 668 mmHg 63%
    05:00 +24°C° 0 mm 1 m/S 668 mmHg 63%
    06:00 +24°C° 0 mm 1 m/S 669 mmHg 64%
    07:00 +24°C° 0 mm 1 m/S 670 mmHg 64%
    08:00 +27°C° 0 mm 2 m/S 670 mmHg 55%
    09:00 +30°C° 0 mm 2 m/S 671 mmHg 45%
    10:00 +34°C° 0 mm 2 m/S 672 mmHg 36%
    11:00 +34°C° 0 mm 2 m/S 671 mmHg 34%
    12:00 +35°C° 0 mm 2 m/S 670 mmHg 33%
    13:00 +35°C° 0 mm 2 m/S 669 mmHg 31%
    14:00 +35°C° 0 mm 2 m/S 669 mmHg 32%
    15:00 +34°C° 0 mm 2 m/S 668 mmHg 33%
    16:00 +34°C° 0 mm 2 m/S 668 mmHg 34%
    17:00 +32°C° 0 mm 2 m/S 668 mmHg 36%
    18:00 +30°C° 0 mm 2 m/S 668 mmHg 38%
    19:00 +29°C° 0 mm 1 m/S 668 mmHg 41%
    20:00 +28°C° 0 mm 1 m/S 668 mmHg 43%
    21:00 +28°C° 0 mm 1 m/S 669 mmHg 45%
    22:00 +27°C° 0 mm 1 m/S 669 mmHg 47%
    23:00 +26°C° 0 mm 1 m/S 669 mmHg 49%

    29 März, Freitag

    Zeit Temperatur Niederschläge Wind Luftdruck Luftfeuchtigkeit
    00:00 +26°C° 0 mm 1 m/S 668 mmHg 51%
    01:00 +25°C° 0 mm 2 m/S 668 mmHg 52%
    02:00 +25°C° 0 mm 1 m/S 668 mmHg 52%
    03:00 +25°C° 0 mm 1 m/S 667 mmHg 52%
    04:00 +25°C° 0 mm 1 m/S 667 mmHg 52%
    05:00 +25°C° 0 mm 1 m/S 668 mmHg 53%
    06:00 +25°C° 0 mm 1 m/S 668 mmHg 54%
    07:00 +25°C° 0 mm 1 m/S 669 mmHg 54%
    08:00 +28°C° 0 mm 2 m/S 669 mmHg 47%
    09:00 +31°C° 0 mm 2 m/S 670 mmHg 39%
    10:00 +34°C° 0 mm 2 m/S 671 mmHg 32%
    11:00 +35°C° 0 mm 2 m/S 670 mmHg 29%
    12:00 +35°C° 0 mm 2 m/S 669 mmHg 27%
    13:00 +36°C° 0 mm 2 m/S 668 mmHg 25%
    14:00 +35°C° 0 mm 2 m/S 668 mmHg 26%
    15:00 +35°C° 0 mm 2 m/S 667 mmHg 27%
    16:00 +34°C° 0 mm 2 m/S 667 mmHg 28%
    17:00 +32°C° 0 mm 1 m/S 667 mmHg 31%
    18:00 +30°C° 0 mm 1 m/S 667 mmHg 33%
    19:00 +29°C° 0 mm 1 m/S 667 mmHg 36%
    20:00 +28°C° 0 mm 1 m/S 668 mmHg 38%
    21:00 +26°C° 0 mm 0 m/S 668 mmHg 39%
    22:00 +25°C° 0 mm 0 m/S 668 mmHg 40%
    23:00 +25°C° 0 mm 0 m/S 668 mmHg 41%

    30 März, Samstag

    Zeit Temperatur Niederschläge Wind Luftdruck Luftfeuchtigkeit
    00:00 +27°C° 0 mm 1 m/S 667 mmHg 41%
    01:00 +26°C° 0 mm 1 m/S 667 mmHg 42%
    02:00 +26°C° 0 mm 1 m/S 667 mmHg 44%
    03:00 +23°C° 0 mm 0 m/S 666 mmHg 46%
    04:00 +22°C° 0 mm 0 m/S 666 mmHg 47%
    05:00 +25°C° 0 mm 1 m/S 667 mmHg 48%
    06:00 +25°C° 0 mm 1 m/S 667 mmHg 49%
    07:00 +25°C° 0 mm 1 m/S 668 mmHg 50%
    08:00 +28°C° 0 mm 1 m/S 668 mmHg 44%
    09:00 +30°C° 0 mm 1 m/S 669 mmHg 38%
    10:00 +33°C° 0 mm 1 m/S 670 mmHg 32%
    11:00 +35°C° 0 mm 1 m/S 669 mmHg 28%
    12:00 +37°C° 0 mm 1 m/S 669 mmHg 24%
    13:00 +40°C° 0 mm 1 m/S 668 mmHg 21%
    14:00 +37°C° 0 mm 1 m/S 668 mmHg 22%
    15:00 +36°C° 0 mm 1 m/S 667 mmHg 24%
    16:00 +35°C° 0 mm 1 m/S 667 mmHg 25%
    17:00 +33°C° 0 mm 1 m/S 667 mmHg 27%
    18:00 +32°C° 0 mm 1 m/S 667 mmHg 30%
    19:00 +28°C° 0 mm 0 m/S 667 mmHg 32%
    20:00 +29°C° 0 mm 1 m/S 667 mmHg 34%
    21:00 +28°C° 0 mm 2 m/S 667 mmHg 37%
    22:00 +27°C° 0 mm 2 m/S 667 mmHg 40%
    23:00 +27°C° 0 mm 2 m/S 667 mmHg 42%

    31 März, Sonntag

    Zeit Temperatur Niederschläge Wind Luftdruck Luftfeuchtigkeit
    00:00 +27°C° 0 mm 2 m/S 667 mmHg 44%
    01:00 +26°C° 0 mm 2 m/S 667 mmHg 46%
    02:00 +26°C° 0.3 mm 2 m/S 667 mmHg 51%
    03:00 +25°C° 0.3 mm 2 m/S 667 mmHg 55%
    04:00 +25°C° 0.3 mm 2 m/S 667 mmHg 60%
    05:00 +25°C° 0 mm 2 m/S 667 mmHg 61%
    06:00 +25°C° 0 mm 2 m/S 667 mmHg 62%
    07:00 +25°C° 0 mm 2 m/S 668 mmHg 63%
    08:00 +28°C° 0 mm 2 m/S 668 mmHg 54%
    09:00 +31°C° 0 mm 1 m/S 669 mmHg 44%
    10:00 +34°C° 0 mm 1 m/S 669 mmHg 35%
    11:00 +35°C° 0 mm 1 m/S 669 mmHg 32%
    12:00 +35°C° 0 mm 1 m/S 668 mmHg 28%
    13:00 +36°C° 0 mm 1 m/S 667 mmHg 25%
    14:00 +36°C° 0 mm 1 m/S 667 mmHg 25%
    15:00 +34°C° 0 mm 0 m/S 667 mmHg 25%
    16:00 +34°C° 0 mm 0 m/S 667 mmHg 24%
    17:00 +34°C° 0.2 mm 1 m/S 666 mmHg 30%
    18:00 +32°C° 0.2 mm 2 m/S 666 mmHg 35%
    19:00 +29°C° 0.2 mm 2 m/S 666 mmHg 40%
    20:00 +29°C° 0.4 mm 2 m/S 666 mmHg 44%
    21:00 +28°C° 0.4 mm 2 m/S 667 mmHg 49%
    22:00 +27°C° 0.4 mm 2 m/S 667 mmHg 53%
    23:00 +26°C° 0.1 mm 3 m/S 667 mmHg 56%
    Mehr zeigen